{"data":{"norad_id":65438,"epoch":"2026-09-20T12:44:08.261088Z","epoch_age_seconds":112258,"freshness":"FRESH","line1":"1 65438U 25194E   26263.53065117  .00012023  00000+0  37388-3 0  9993","line2":"2 65438  97.2834 113.1906 0002279  77.4183 282.7314 15.33465431 59075","mean_motion":15.33465431,"eccentricity":0.0002279,"inclination_deg":97.2834,"raan_deg":113.1906,"arg_perigee_deg":77.4183,"mean_anomaly_deg":282.7314,"bstar":0.00037388,"rev_number":5907,"period_min":93.904953505274,"perigee_km":463.92272601322,"apogee_km":467.04204772975,"semimajor_km":6843.6193868715,"source":"CELESTRAK","updated_at":"2026-09-21T09:00:35.609166Z"}}